Regional Weather Roundup
Issued by NWS

Home | Current Version | Previous Version | Graphics & Text | Print | Product List | Glossary On
Versions: 1 2 3 4 5 6 7 8 9 10 11 12 13 14 15
000
ASUS45 KTFX 161408
RWRMT
MONTANA REGIONAL WEATHER ROUNDUP
NATIONAL WEATHER SERVICE GREAT FALLS MT
700 AM MST MON JAN 16 2017

NOTE: "FAIR" INDICATES FEW OR NO CLOUDS BELOW 12000 FEET WITH NO
SIGNIFICANT WEATHER AND/OR OBSTRUCTIONS TO VISIBILITY.

MTZ001>007-043-161500-
WEST OF THE DIVIDE

CITY           SKY/WX    TMP DP  RH WIND       PRES   REMARKS
KALISPELL      CLOUDY    11   8  88 CALM      30.35F
MISSOULA       CLEAR     -7 -11  83 CALM      30.39F
BUTTE          CLOUDY   -12 -18  74 CALM      30.22S
MULLAN PASS    CLEAR     19  14  81 W5        30.15S
ANACONDA         N/A      1  -2  85 S5        30.24F
DEER LODGE       N/A     -6  -9  84 CALM      30.28F
EUREKA           N/A     10   7  85 SW3       30.40R
HAMILTON         N/A     -6  -9  84 CALM      30.34F
RONAN            N/A      0  -6  75 MISG      30.33R VSB 0
$$

MTZ008-052>055-161500-
SOUTHWEST MONTANA

CITY           SKY/WX    TMP DP  RH WIND       PRES   REMARKS
BOZEMAN        CLOUDY    -8 -12  83 S6        30.23F WCI -21
DILLON         CLOUDY     7  -8  50 S10       30.21S WCI  -8
W YELLOWSTONE  HAZE     -17 -22  76 CALM      30.23R VSB 1/4
ENNIS          CLEAR     -4  -9  77 N3        30.25F
TWIN BRIDGES     N/A     -1 -12  59 SE3       30.17S
$$

MTZ009-010-012-014-046-048-049-054-161500-
EAST SLOPES AND CENTRAL MONTANA

CITY           SKY/WX    TMP DP  RH WIND       PRES   REMARKS
CUT BANK       CLEAR     25  13  60 W14       30.03F WCI  13
GREAT FALLS    CLOUDY    21  10  62 S16       30.10R WCI   7
MALMSTROM AFB  CLOUDY    18  11  74 SW15      30.12R WCI   4
HELENA         CLOUDY    -7 -12  79 CALM      30.26F
AUGUSTA          N/A     26  14  60 W9        30.06F WCI  17
BOWMANS CRNR     N/A     15   6  67 S18       30.08S WCI  -1
CHOTEAU          N/A     23  12  63 S7        30.08F WCI  15
FAIRFIELD        N/A     19   9  67 S12       30.08S WCI   6
POWER            N/A     11   4  73 SW8       30.09S WCI  -1
RAYNESFORD       N/A     29  11  47 S24       30.09S WCI  15
ULM              N/A     16   7  67 MISG      30.13S
$$

MTZ011-013-016-021-045-047-050-051-161500-
NORTH CENTRAL MONTANA

CITY           SKY/WX    TMP DP  RH WIND       PRES   REMARKS
HAVRE          CLOUDY     8   3  80 W10       30.13R WCI  -6
LEWISTOWN      CLEAR     14   5  67 SE5       30.10F
N BAR RANCH      N/A     30  10  43 W9        30.10F WCI  22
CHINOOK          N/A      3   0  85 CALM      30.14S
DENTON           N/A     15   7  71 S9        30.08S WCI   3
FORT BENTON      N/A     16   7  67 MISG      30.15R
GEYSER           N/A     24   8  51 W7        30.09F WCI  15
GRASS RANGE      N/A     27  13  55 SW20      30.07F WCI  13
JUDITH GAP       N/A     16   3  55 SW14      30.09F WCI   2
ROY              N/A     22  13  68 MISG      30.07F
STANFORD         N/A     19   9  65 CALM      30.08F
WINIFRED         N/A     25  11  54 SW8       30.09F WCI  16
$$

MTZ017>020-022>027-061-062-161500-
NORTHEAST MONTANA

CITY           SKY/WX    TMP DP  RH WIND       PRES   REMARKS
GLASGOW        CLOUDY     0  -4  83 NW6       30.12R WCI -12
JORDAN           N/A      8   2  76 CALM      30.13R
SIDNEY         CLOUDY     1  -2  87 S5        30.12R
WOLF POINT     CLOUDY     5   0  79 W10       30.14R WCI -10
PLENTYWOOD       N/A     16  12  86 NW9       30.08R WCI   4
POPLAR           N/A      3  -2  78 CALM      30.14R
$$

MTZ028>42-056>058-161500-
SOUTHCENTRAL AND SOUTHEAST MONTANA

CITY           SKY/WX    TMP DP  RH WIND       PRES   REMARKS
BAKER          CLOUDY    11   3  70 W20       30.09R WCI  -7
BILLINGS       CLOUDY    15   3  59 SW23      30.16R WCI  -3
LIVINGSTON     CLOUDY    16   4  59 NW20      30.17F WCI  -1
MILES CITY     CLOUDY     1  -5  75 S8        30.16R WCI -13
BIG TIMBER     CLEAR     27   7  43 SW32G39   30.13F WCI  10
FORSYTH          N/A      7   1  78 W3        30.16R
HARLOWTON        N/A     26  10  51 W16       30.11F WCI  13
LAUREL           N/A      6  -5  60 W7        30.13R WCI  -6
$$

REGIONAL REPORTS...DAKOTAS

CITY           SKY/WX    TMP DP  RH WIND       PRES   REMARKS
WILLISTON      CLOUDY     6   2  83 S6        30.11R WCI  -4
MINOT          CLOUDY    16  10  77 W9        30.02S WCI   4
DICKINSON      CLOUDY    13   5  70 W15       30.04R WCI  -3
BEACH            N/A     14   7  73 W12       30.11R WCI   0
CROSBY           N/A     16  14  93 W10       30.08S WCI   3
TIOGA            N/A      9   9 100 W6        30.06R WCI  -1
WATFORD CITY     N/A      7   1  78 SW9       30.10R WCI  -7
BISMARCK       CLOUDY    -4 -10  75 CALM      30.09R
GRAND FORKS    CLOUDY     4  -2  76 S9        30.06R WCI -10
FARGO          CLOUDY     9   5  84 S10       30.09R WCI  -5
BUFFALO SD       N/A     16   5  62 W10       30.00R WCI   4
RAPID CITY     CLOUDY    26   8  46 N18       30.06S WCI  13
$$

REGIONAL REPORTS...WYOMING/IDAHO/WASHINGTON

CITY           SKY/WX    TMP DP  RH WIND       PRES   REMARKS
GILLETTE       CLOUDY    18   6  59 CALM      30.11S
SHERIDAN       CLOUDY     8  -2  63 SW7       30.13R WCI  -3
BUFFALO WY     CLOUDY    24   3  40 CALM      30.11R
CODY           CLOUDY    13   3  64 VRB5      30.15R
YELLOWSTONE LA   N/A    -21 -25  81 CALM      30.18R
IDAHO FALLS    FOG       -3  -6  87 N7        30.32F VSB 1   WCI -16
SALMON         CLOUDY   -24 -24 100 CALM      30.53S
BOISE          PTCLDY     1  -2  87 CALM      30.45R
SPOKANE        SNOW       3   1  91 CALM      30.37F VSB 1/4
$$

REGIONAL REPORTS...ALBERTA

CITY           SKY/WX    TMP DP  RH WIND       PRES   REMARKS
EDMONTON       CLEAR     27  10  50 SW13      29.83S WCI  16
CALGARY        MOCLDY    23  12  63 S6        29.91F WCI  16
LETHBRIDGE     PTCLDY    21  12  68 SW10      30.00F WCI  10
MEDICINE HAT   CLEAR     12   7  79 SW9       30.04F WCI   0
$$

REGIONAL REPORTS...SASKATCHEWAN

CITY           SKY/WX    TMP DP  RH WIND       PRES   REMARKS
SWIFT CURRENT  CLEAR     21  16  79 SW13      30.03S WCI   9
REGINA         CLEAR     10   9  92 SW6       30.05R WCI   1
SASKATOON      PTCLDY    14  10  85 SW8       30.00F WCI   3
$$




USA.gov is the U.S. government's official web portal to all federal, state and local government web resources and services.